User: anonymous   Login
Location: Newark
(45.8944°N, 12.5886°E)
Time: 04:42:32
(UTC+00:00)
Language:

BEESAT - Orbit

View from above orbital plane
View from above orbital plane
View from above satellite
View from above satellite

Ground track
Ground track

The orbit data is extracted from the following two-line orbital elements,

1 35933U 09051C   20091.98077392  .00000096  00000-0  32717-4 0  9994
2 35933  98.6084 273.6358 0006211  28.8476 331.3063 14.56450633558700
Epoch (UTC): 31 March 2020 23:32:18
Eccentricity: 0.0006211
inclination: 98.6084°
perigee height: 700 km
apogee height: 709 km
right ascension of ascending node: 273.6358°
argument of perigee: 28.8476°
revolutions per day: 14.56450633
mean anomaly at epoch: 331.3063°
orbit number at epoch: 55870

The dashed part of the orbit path shows where the satellite is in the earth's shadow,  

DLR